Location: Haulchin
(50.3172°N, 3.4360°E)
Time: 20:01:19
(UTC+00:00)

Cosmos 2333 Rocket - Pass Details

Date: 17 August 2024
Orbit: 838 x 863 km, 70.8° (Epoch: 09 September)

Event Time Altitude Azimuth Distance (km) Brightness Sun altitude
Exits shadow 23:44:21 62° 246° (WSW) 966 2.3 -26.7°
Maximum altitude 23:45:12 74° 302° (WNW) 902 2.3 -26.7°
Drops below altitude 10° 23:51:00 10° 27° (NNE) 2,514 5.5 -26.7°
Sets 23:53:29 0° 30° (NNE) 3,455 6.3 -26.7°
